Location: Moscow
(55.7500°N, 37.5830°E)
Time: 02:32:37
(UTC+03:00)

ISS - Visible Passes

Search period start: 15 March 2026 00:00
Search period end: 25 March 2026 00:00
Orbit: 417 x 426 km, 51.6° (Epoch: 14 March)

Date Brightness Start Highest point End Pass type
(mag) Time Alt. Az. Time Alt. Az. Time Alt. Az.
15 Mar -2.8 20:17:49 10° SW 20:20:51 30° SSE 20:21:09 30° SSE visible
15 Mar -0.6 21:54:05 10° WSW 21:54:11 11° WSW 21:54:11 11° WSW visible
16 Mar -2.4 19:31:20 10° SW 19:34:11 25° SSE 19:36:25 14° ESE visible
16 Mar -2.3 21:07:23 10° WSW 21:09:26 29° SW 21:09:26 29° SW visible
17 Mar -3.1 20:20:39 10° WSW 20:23:52 39° S 20:24:37 34° SE visible
17 Mar -0.8 21:57:13 10° W 21:57:38 13° WSW 21:57:38 13° WSW visible
18 Mar -2.8 19:33:58 10° SW 19:37:08 35° SSE 19:39:43 14° ESE visible
18 Mar -2.4 21:10:25 10° WSW 21:12:44 32° SW 21:12:44 32° SW visible
19 Mar -3.1 20:23:36 10° WSW 20:26:50 41° S 20:27:47 32° SE visible
19 Mar -0.8 22:00:24 10° W 22:00:47 12° WSW 22:00:47 12° WSW visible
20 Mar -3.0 19:36:48 10° WSW 19:40:02 41° S 19:42:48 13° ESE visible
20 Mar -2.2 21:13:28 10° W 21:15:48 27° SW 21:15:48 27° SW visible
21 Mar -2.7 20:26:35 10° W 20:29:42 34° SSW 20:30:48 27° SSE visible
22 Mar -2.8 19:39:41 10° WSW 19:42:53 38° S 19:45:47 12° ESE visible
22 Mar -1.7 21:16:41 10° WSW 21:18:47 19° SW 21:18:47 19° SW visible
23 Mar -2.1 20:29:37 10° W 20:32:26 24° SSW 20:33:45 19° SSE visible
24 Mar -2.3 19:42:36 10° W 19:45:36 29° SSW 19:48:36 10° SE visible
24 Mar -1.0 21:20:50 10° SW 21:21:40 11° SW 21:21:45 11° SW visible
